Simultaneous Nadir Overpasses (SNOs) Predictions

Prediction of SNOs between GOES-15 and METOP-C Satellite Orbit:

Table of predicted SNOs for the next 14.0 days since TLE Epoch: 10/16/2023
Index Date Time (GOES-15) GOES-15 Lat,Lon METOP-C Lat,Lon Distance(km) Time Diff (sec)
1 10/16/2023 16:23:15 0.32, 80.32 -0.42, 76.90 389.22 80
2 10/17/2023 15:59:59 0.31, 79.26 0.90, 81.84 294.34 80
3 10/19/2023 04:21:37 -0.32, 77.53 -0.24, 77.21 36.22 80
4 10/20/2023 16:40:44 0.31, 76.02 -0.45, 72.54 396.69 80
5 10/21/2023 16:17:29 0.31, 74.97 0.88, 77.48 286.54 80
6 10/23/2023 04:39:06 -0.31, 73.24 -0.22, 72.85 44.59 80
7 10/24/2023 16:58:12 0.31, 71.73 -0.51, 68.19 404.29 80
8 10/25/2023 16:34:57 0.30, 70.68 0.83, 73.13 279.09 80
9 10/27/2023 04:56:34 -0.30, 68.95 -0.17, 68.49 52.24 80
10 10/28/2023 17:15:40 0.30, 67.43 -0.53, 63.83 411.00 80
11 10/29/2023 16:52:25 0.30, 66.38 0.82, 68.77 272.24 80
